カタログに戻る

ARIANE 5 R/B

運用中HEO
NORAD 39510·ROCKET BODY·🇫🇷 France

打ち上げ Feb 6, 2014 から Guiana Space Centre

Loading…

次のパス (今後24時間)

TLE

最新Source: Space-Track

元期: Sep 14, 2026, 19:51 UTC

1 39510U 14006C   26257.82731522  .00001538  00000-0  63494-3 0  9997
2 39510   6.2881  72.3889 7102175 182.7455 168.9022  2.49736895109053

AllMySatでARIANE 5 R/Bをリアルタイム追跡

Download on the App Store